Adak, AK

8:27 AM HDT on May 23, 2017 (GMT -0900)
Adak

Weather History for PADK - March, 2013

Change the Weather History Date:

Wednesday, March 27, 2013

  Actual Average Record
Temperature  
Mean Temperature 36 °F -  
Max Temperature 39 °F 39 °F 46 °F (1965)
Min Temperature 33 °F 30 °F 21 °F (1959)
Degree Days  
Heating Degree Days 29    
Moisture  
Dew Point 30 °F    
Average Humidity 81    
Maximum Humidity 93    
Minimum Humidity 58    
Precipitation  
Precipitation 0.71 in - - ()
Sea Level Pressure  
Sea Level Pressure 29.16 in    
Wind  
Wind Speed 15 mph (South)    
Max Wind Speed 23 mph    
Max Gust Speed 37 mph    
Visibility 9 miles    
Events      
Averages and records for this station are not official NWS values.
T = Trace of Precipitation, MM = Missing Value Source: NWS Daily Summary

Daily Weather History Graph

Daily Weather History Graph

Search for Another Location

Airport or City:

Trip Planner

Search our weather history database for the weather conditions in past years. The results will help you decide how hot, cold, wet, or windy it might be!

Date:

Astronomy

Mar. 27, 2013 Rise Set
Actual Time 8:31 AM HDT 9:12 PM HDT
Civil Twilight 7:57 AM HDT 9:46 PM HDT
Nautical Twilight 7:17 AM HDT 10:27 PM HDT
Astronomical Twilight 6:34 AM HDT 11:10 PM HDT
Moon 10:25 PM HDT (3/27) 8:23 AM HDT (3/27)
Length of Visible Light 13h 48m
Length of Day
12h 40m
Full, 100% of the Moon is Illuminated
Mar 27
Full
Apr 2
Last Quarter
Apr 10
New
Apr 18
First Quarter
Apr 25
Full

Hourly Weather History & Observations

Time (HDT) Temp. Windchill Dew Point Humidity Pressure Visibility Wind Dir Wind Speed Gust Speed Precip Events Conditions
12:16 AM 37.4 °F 27.2 °F 28.4 °F 70% 29.35 in 10.0 mi SW 19.6 mph 25.3 mph N/A   Overcast
12:36 AM 35.6 °F 25.2 °F 28.4 °F 75% 29.35 in 10.0 mi SW 18.4 mph 24.2 mph 0.05 in   Mostly Cloudy
12:56 AM 35.6 °F 24.5 °F 28.4 °F 75% 29.34 in 10.0 mi SW 20.7 mph 32.2 mph 0.09 in   Mostly Cloudy
1:16 AM 35.6 °F 24.2 °F 28.4 °F 75% 29.34 in 10.0 mi SW 21.9 mph - N/A   Mostly Cloudy
1:36 AM 37.4 °F 28.5 °F 26.6 °F 65% 29.34 in 10.0 mi SSW 15.0 mph - 0.13 in   Mostly Cloudy
1:56 AM 37.4 °F 27.2 °F 28.4 °F 70% 29.34 in 10.0 mi SSW 19.6 mph 25.3 mph 0.26 in   Overcast
2:16 AM 37.4 °F 27.8 °F 26.6 °F 65% 29.34 in 10.0 mi SSW 17.3 mph 26.5 mph 0.01 in   Mostly Cloudy
2:36 AM 35.6 °F 25.9 °F 26.6 °F 70% 29.34 in 10.0 mi SSW 16.1 mph - 0.21 in   Overcast
2:56 AM 35.6 °F 26.6 °F 26.6 °F 70% 29.33 in 10.0 mi SW 13.8 mph - 0.43 in   Mostly Cloudy
3:16 AM 35.6 °F 25.9 °F 26.6 °F 70% 29.33 in 10.0 mi SW 16.1 mph 21.9 mph 0.21 in   Mostly Cloudy
3:36 AM 33.8 °F 23.5 °F 28.4 °F 81% 29.33 in 10.0 mi South 16.1 mph - 0.37 in   Overcast
3:56 AM 33.8 °F 25.8 °F 28.4 °F 81% 29.32 in 10.0 mi South 10.4 mph - 0.70 in   Mostly Cloudy
4:16 AM 35.6 °F 26.6 °F 28.4 °F 75% 29.31 in 10.0 mi SSW 13.8 mph 18.4 mph N/A   Mostly Cloudy
4:36 AM 33.8 °F 23.9 °F 28.4 °F 81% 29.31 in 1.2 mi SSW 15.0 mph 23.0 mph 0.02 in   Overcast
4:56 AM 33.8 °F 25.8 °F 28.4 °F 81% 29.30 in 10.0 mi South 10.4 mph - 0.02 in   Overcast
5:16 AM 33.8 °F 25.8 °F 28.4 °F 81% 29.30 in 10.0 mi South 10.4 mph - N/A   Mostly Cloudy
5:36 AM 33.8 °F 23.9 °F 28.4 °F 81% 29.29 in 10.0 mi SSW 15.0 mph - N/A   Overcast
5:56 AM 33.8 °F 23.9 °F 28.4 °F 81% 29.29 in 10.0 mi SSW 15.0 mph - N/A   Overcast
6:16 AM 33.8 °F 23.5 °F 28.4 °F 81% 29.28 in 10.0 mi SSW 16.1 mph 19.6 mph N/A   Overcast
6:36 AM 33.8 °F 24.3 °F 26.6 °F 75% 29.28 in 10.0 mi SSW 13.8 mph - 0.01 in   Overcast
6:56 AM 33.8 °F 25.3 °F 26.6 °F 75% 29.27 in 10.0 mi South 11.5 mph - 0.01 in   Mostly Cloudy
7:16 AM 33.8 °F 27.0 °F 30.2 °F 87% 29.28 in 1.2 mi SW 8.1 mph - 0.01 in   Overcast
7:36 AM 33.8 °F 25.8 °F 28.4 °F 81% 29.27 in 10.0 mi SSW 10.4 mph - 0.01 in   Overcast
7:56 AM 33.8 °F 24.8 °F 28.4 °F 81% 29.27 in 10.0 mi SSW 12.7 mph - 0.01 in   Overcast
8:16 AM 33.8 °F 27.0 °F 26.6 °F 75% 29.26 in 10.0 mi South 8.1 mph - N/A   Mostly Cloudy
8:36 AM 33.8 °F 23.2 °F 28.4 °F 81% 29.26 in 6.0 mi South 17.3 mph 24.2 mph N/A   Mostly Cloudy
8:56 AM 33.8 °F 25.8 °F 28.4 °F 81% 29.25 in 10.0 mi South 10.4 mph 16.1 mph N/A   Overcast
9:16 AM 35.6 °F 24.5 °F 28.4 °F 75% 29.25 in 9.0 mi SSW 20.7 mph 26.5 mph N/A   Overcast
9:36 AM 33.8 °F 27.7 °F 28.4 °F 81% 29.24 in 10.0 mi SSW 6.9 mph - N/A   Mostly Cloudy
9:56 AM 35.6 °F 26.2 °F 28.4 °F 75% 29.24 in 10.0 mi South 15.0 mph 23.0 mph N/A   Scattered Clouds
10:16 AM 35.6 °F 27.5 °F 28.4 °F 75% 29.24 in 10.0 mi South 11.5 mph - N/A   Mostly Cloudy
10:36 AM 35.6 °F 26.6 °F 28.4 °F 75% 29.24 in 9.0 mi South 13.8 mph - N/A   Overcast
10:56 AM 35.6 °F 27.5 °F 28.4 °F 75% 29.22 in 5.0 mi South 11.5 mph 16.1 mph N/A   Mostly Cloudy
11:16 AM 35.6 °F 25.5 °F 30.2 °F 81% 29.22 in 10.0 mi South 17.3 mph - N/A   Overcast
11:36 AM 37.4 °F 27.5 °F 28.4 °F 70% 29.21 in 10.0 mi South 18.4 mph - N/A   Overcast
11:56 AM 37.4 °F 29.3 °F 28.4 °F 70% 29.20 in 10.0 mi South 12.7 mph - N/A   Overcast
12:16 PM 37.4 °F 27.8 °F 30.2 °F 75% 29.19 in 9.0 mi South 17.3 mph 21.9 mph N/A   Mostly Cloudy
12:36 PM 37.4 °F 26.9 °F 32.0 °F 81% 29.18 in 8.0 mi SSE 20.7 mph 25.3 mph N/A   Overcast
12:56 PM 35.6 °F 26.6 °F 30.2 °F 81% 29.18 in 6.0 mi South 13.8 mph 24.2 mph N/A   Mostly Cloudy
1:16 PM 37.4 °F 27.5 °F 32.0 °F 81% 29.16 in 10.0 mi South 18.4 mph 25.3 mph N/A   Overcast
1:36 PM 37.4 °F 26.4 °F 33.8 °F 87% 29.15 in 8.0 mi South 23.0 mph 28.8 mph N/A   Overcast
1:56 PM 37.4 °F 27.8 °F 33.8 °F 87% 29.14 in 8.0 mi South 17.3 mph 24.2 mph N/A   Overcast
2:16 PM 37.4 °F 27.2 °F 33.8 °F 87% 29.13 in 7.0 mi SSE 19.6 mph 27.6 mph N/A   Overcast
2:36 PM 37.4 °F 27.2 °F 33.8 °F 87% 29.11 in 5.0 mi South 19.6 mph 24.2 mph N/A   Overcast
2:56 PM 35.6 °F 24.0 °F 32.0 °F 87% 29.10 in 3.0 mi South 23.0 mph 36.8 mph N/A   Overcast
3:16 PM 33.8 °F 23.9 °F 30.2 °F 87% 29.10 in 4.0 mi South 15.0 mph 27.6 mph N/A   Overcast
3:36 PM 33.8 °F 27.0 °F 30.2 °F 87% 29.09 in 1.2 mi SSW 8.1 mph - N/A   Overcast
3:56 PM 35.6 °F 27.5 °F 32.0 °F 87% 29.08 in 10.0 mi South 11.5 mph - N/A   Overcast
4:16 PM 35.6 °F 27.5 °F 32.0 °F 87% 29.07 in 8.0 mi South 11.5 mph 17.3 mph N/A   Overcast
4:36 PM 37.4 °F 27.5 °F 33.8 °F 87% 29.05 in 10.0 mi South 18.4 mph 24.2 mph N/A   Mostly Cloudy
4:56 PM 37.4 °F 27.8 °F 33.8 °F 87% 29.04 in 8.0 mi South 17.3 mph 21.9 mph N/A   Overcast
5:16 PM 39.2 °F 31.2 °F 33.8 °F 81% 29.04 in 10.0 mi South 13.8 mph - N/A   Mostly Cloudy
5:36 PM 39.2 °F 30.5 °F 33.8 °F 81% 29.02 in 10.0 mi South 16.1 mph 21.9 mph N/A   Overcast
5:56 PM 39.2 °F 30.8 °F 33.8 °F 81% 29.02 in 10.0 mi South 15.0 mph 20.7 mph N/A   Mostly Cloudy
6:16 PM 37.4 °F 28.5 °F 33.8 °F 87% 29.01 in 9.0 mi SSE 15.0 mph - N/A   Mostly Cloudy
6:36 PM 37.4 °F 29.8 °F 33.8 °F 87% 29.00 in 9.0 mi SSE 11.5 mph - N/A   Overcast
6:56 PM 37.4 °F 29.8 °F 33.8 °F 87% 28.99 in 10.0 mi SSE 11.5 mph - N/A   Overcast
7:16 PM 35.6 °F 28.0 °F 32.0 °F 87% 28.99 in 4.0 mi SSE 10.4 mph - N/A   Overcast
7:36 PM 35.6 °F 27.5 °F 33.8 °F 93% 28.98 in 10.0 mi SSE 11.5 mph - 0.40 in   Overcast
7:56 PM 35.6 °F 29.2 °F 33.8 °F 93% 28.97 in 7.0 mi SSE 8.1 mph - 0.59 in   Overcast
8:16 PM 35.6 °F - 33.8 °F 93% 28.97 in 8.0 mi Calm Calm - 0.07 in   Overcast
8:36 PM 37.4 °F 33.8 °F 33.8 °F 87% 28.97 in 10.0 mi SSE 4.6 mph - 0.11 in   Overcast
8:56 PM 37.4 °F 32.1 °F 33.8 °F 87% 28.97 in 7.0 mi SSE 6.9 mph - 0.12 in   Overcast
9:16 PM 35.6 °F - 32.0 °F 87% 28.96 in 9.0 mi Calm Calm - 0.01 in   Overcast
9:36 PM 35.6 °F 28.6 °F 33.8 °F 93% 28.97 in 9.0 mi SSE 9.2 mph - 0.13 in   Overcast
9:56 PM 35.6 °F 31.7 °F 32.0 °F 87% 28.97 in 8.0 mi SE 4.6 mph - 0.17 in   Overcast
10:16 PM 35.6 °F - 32.0 °F 87% 28.98 in 9.0 mi Calm Calm - N/A   Overcast
10:36 PM 33.8 °F 29.6 °F 30.2 °F 87% 28.98 in 5.0 mi NNW 4.6 mph - 0.02 in   Overcast
10:56 PM 33.8 °F - 30.2 °F 87% 28.98 in 9.0 mi North - - 0.03 in   Overcast
11:16 PM 33.8 °F 30.8 °F 30.2 °F 87% 28.99 in 7.0 mi North 3.5 mph - N/A   Overcast
11:36 PM 33.8 °F 30.8 °F 30.2 °F 87% 29.00 in 10.0 mi NNW 3.5 mph - 0.01 in   Overcast
11:56 PM 33.8 °F 28.6 °F 30.2 °F 87% 29.00 in 10.0 mi North 5.8 mph - 0.01 in   Mostly Cloudy